This is the latest recevied weather packets stored in our database for station/object KL4TQ. If no packets are shown the sender has not sent any weather packets the latest 10 day(s).
| Time | Temp. | Humidity | Pressure | Rain* | Wind** | Luminosity | Snow |
|---|---|---|---|---|---|---|---|
| 1777751168 | 6.11° C | 64% | 857 hPa | 0 mm | - | 434 W/m² | - |
| 1777750869 | 6.11° C | 66% | 857 hPa | 0 mm | - | 355 W/m² | - |
| 1777750569 | 6.11° C | 66% | 857 hPa | 0 mm | - | 362 W/m² | - |
| 1777750268 | 6.11° C | 65% | 857 hPa | 0 mm | - | 327 W/m² | - |
| 1777749969 | 5.56° C | 66% | 857 hPa | 0 mm | - | 374 W/m² | - |
| 1777749668 | 5.56° C | 66% | 857 hPa | 0 mm | - | 283 W/m² | - |
| 1777749368 | 5.56° C | 66% | 857 hPa | 0 mm | - | 319 W/m² | - |
| 1777749068 | 5.56° C | 66% | 857 hPa | 0 mm | - | 426 W/m² | - |
| 1777748769 | 5.56° C | 66% | 857 hPa | 0 mm | - | 370 W/m² | - |
| 1777748469 | 5.56° C | 64% | 857 hPa | 0 mm | - | 314 W/m² | - |
| 1777748169 | 5.56° C | 64% | 857 hPa | 0 mm | - | 313 W/m² | - |
| 1777747869 | 5.56° C | 64% | 857 hPa | 0 mm | - | 288 W/m² | - |
| 1777747568 | 5.56° C | 65% | 857 hPa | 0 mm | - | 281 W/m² | - |
| 1777747269 | 5.56° C | 65% | 857 hPa | 0 mm | - | 264 W/m² | - |
| 1777746968 | 5° C | 66% | 857 hPa | 0 mm | - | 280 W/m² | - |
| 1777746669 | 5° C | 66% | 857 hPa | 0 mm | - | 288 W/m² | - |
| 1777746369 | 5° C | 66% | 857 hPa | 0 mm | - | 314 W/m² | - |
| 1777746068 | 5° C | 67% | 857 hPa | 0 mm | - | 285 W/m² | - |
| 1777745769 | 5° C | 67% | 857 hPa | 0 mm | - | 223 W/m² | - |
| 1777745468 | 5° C | 67% | 857 hPa | 0 mm | - | 258 W/m² | - |
| 1777745168 | 5° C | 67% | 857 hPa | 0 mm | - | 276 W/m² | - |
| 1777744868 | 5.56° C | 67% | 857 hPa | 0 mm | - | 285 W/m² | - |
| 1777744569 | 5.56° C | 67% | 857 hPa | 0 mm | - | 353 W/m² | - |
| 1777744268 | 5.56° C | 67% | 857 hPa | 0 mm | - | 367 W/m² | - |
| 1777743969 | 5° C | 71% | 857 hPa | 0 mm | - | 339 W/m² | - |
* Rain latest hour (hover to see other rain measurements)
** Current wind speed in m/s (hover to see current wind gust speed)